TimeEST,TemperatureF,Dew PointF,Humidity,Sea Level PressureIn,VisibilityMPH,Wind Direction,Wind SpeedMPH,Gust SpeedMPH,PrecipitationIn,Events,Conditions,WindDirDegrees,DateUTC
12:15 AM,33.3,33.3,100,29.21,2.0,Calm,Calm,-,0.01,,Overcast,0,2014-01-12 05:15:00
12:35 AM,33.3,33.3,100,29.23,2.0,Calm,Calm,-,0.02,,Overcast,0,2014-01-12 05:35:00
12:55 AM,34.5,34.5,100,29.23,4.0,West,9.2,-,0.02,,Overcast,270,2014-01-12 05:55:00
1:15 AM,44.6,43.7,97,29.22,10.0,West,3.5,18.4,N/A,,Light Drizzle,260,2014-01-12 06:15:00
1:35 AM,36.3,34.7,94,29.23,10.0,East,6.9,-,N/A,,Mostly Cloudy,80,2014-01-12 06:35:00
1:55 AM,35.8,34.7,96,29.25,10.0,ENE,3.5,-,N/A,,Mostly Cloudy,70,2014-01-12 06:55:00
2:15 AM,37.9,37.0,97,29.26,10.0,NW,4.6,-,N/A,,Scattered Clouds,310,2014-01-12 07:15:00
2:35 AM,41.4,37.2,85,29.28,10.0,NW,4.6,-,N/A,,Clear,310,2014-01-12 07:35:00
2:55 AM,38.8,35.6,88,29.30,10.0,Calm,Calm,-,N/A,,Clear,0,2014-01-12 07:55:00
3:15 AM,39.9,36.9,89,29.30,10.0,Calm,Calm,-,N/A,,Scattered Clouds,0,2014-01-12 08:15:00
3:35 AM,42.3,35.6,77,29.31,10.0,Calm,Calm,-,N/A,,Overcast,0,2014-01-12 08:35:00
3:55 AM,37.9,35.1,89,29.30,10.0,Calm,Calm,-,N/A,,Overcast,0,2014-01-12 08:55:00
4:15 AM,40.8,35.2,80,29.30,10.0,West,3.5,-,N/A,,Overcast,270,2014-01-12 09:15:00
4:35 AM,42.1,34.2,74,29.30,10.0,West,10.4,23.0,N/A,,Scattered Clouds,260,2014-01-12 09:35:00
4:55 AM,41.7,33.8,73,29.31,10.0,West,6.9,16.1,N/A,,Clear,270,2014-01-12 09:55:00
5:15 AM,41.9,32.9,70,29.32,10.0,West,15.0,23.0,N/A,,Scattered Clouds,270,2014-01-12 10:15:00
5:35 AM,41.7,32.0,68,29.33,10.0,West,18.4,29.9,0.01,,Scattered Clouds,270,2014-01-12 10:35:00
5:55 AM,41.5,30.9,66,29.34,10.0,West,17.3,28.8,0.01,,Mostly Cloudy,270,2014-01-12 10:55:00
6:15 AM,41.2,30.2,65,29.34,10.0,West,13.8,21.9,N/A,,Scattered Clouds,270,2014-01-12 11:15:00
6:35 AM,40.5,30.2,67,29.36,10.0,WSW,10.4,20.7,N/A,,Scattered Clouds,250,2014-01-12 11:35:00
6:55 AM,40.5,29.8,66,29.37,10.0,West,12.7,24.2,N/A,,Mostly Cloudy,270,2014-01-12 11:55:00
7:15 AM,40.5,29.3,64,29.38,10.0,West,11.5,24.2,N/A,,Overcast,270,2014-01-12 12:15:00
7:35 AM,40.1,29.3,65,29.39,10.0,West,11.5,23.0,N/A,,Overcast,280,2014-01-12 12:35:00
7:55 AM,39.9,29.3,66,29.41,10.0,WNW,10.4,-,N/A,,Overcast,300,2014-01-12 12:55:00
8:15 AM,39.6,29.3,67,29.43,10.0,Calm,Calm,-,N/A,,Overcast,0,2014-01-12 13:15:00
8:35 AM,40.1,29.1,65,29.44,10.0,WNW,5.8,-,N/A,,Overcast,290,2014-01-12 13:35:00
8:55 AM,40.3,28.9,64,29.45,10.0,West,8.1,-,N/A,,Overcast,280,2014-01-12 13:55:00
9:15 AM,40.3,28.8,63,29.46,10.0,West,11.5,20.7,N/A,,Overcast,270,2014-01-12 14:15:00
9:35 AM,40.1,28.6,63,29.48,10.0,West,13.8,26.5,N/A,,Mostly Cloudy,270,2014-01-12 14:35:00
9:55 AM,40.8,28.6,62,29.48,10.0,West,17.3,23.0,N/A,,Mostly Cloudy,280,2014-01-12 14:55:00
10:15 AM,41.0,28.2,60,29.50,10.0,WNW,16.1,24.2,N/A,,Mostly Cloudy,290,2014-01-12 15:15:00
10:35 AM,40.8,27.9,60,29.50,10.0,West,18.4,27.6,N/A,,Mostly Cloudy,280,2014-01-12 15:35:00
10:55 AM,40.6,27.9,60,29.50,10.0,WNW,11.5,27.6,N/A,,Overcast,290,2014-01-12 15:55:00
11:15 AM,40.8,27.7,60,29.50,10.0,WNW,13.8,19.6,N/A,,Scattered Clouds,290,2014-01-12 16:15:00
11:35 AM,40.8,26.1,56,29.50,10.0,WNW,19.6,29.9,N/A,,Scattered Clouds,290,2014-01-12 16:35:00
11:55 AM,42.1,25.9,53,29.49,10.0,WNW,9.2,20.7,N/A,,Clear,290,2014-01-12 16:55:00
12:15 PM,42.3,25.7,52,29.50,10.0,NW,13.8,28.8,N/A,,Scattered Clouds,310,2014-01-12 17:15:00
12:35 PM,42.1,25.7,52,29.53,10.0,WNW,10.4,19.6,N/A,,Mostly Cloudy,290,2014-01-12 17:35:00
12:55 PM,41.5,25.7,53,29.53,10.0,NW,16.1,23.0,N/A,,Overcast,320,2014-01-12 17:55:00
1:15 PM,41.2,25.3,53,29.53,10.0,NW,17.3,25.3,N/A,,Mostly Cloudy,310,2014-01-12 18:15:00
1:35 PM,41.4,25.3,53,29.54,10.0,WNW,17.3,26.5,N/A,,Mostly Cloudy,300,2014-01-12 18:35:00
1:55 PM,41.9,25.9,53,29.55,10.0,WNW,10.4,26.5,N/A,,Overcast,300,2014-01-12 18:55:00
2:15 PM,41.0,26.2,56,29.57,10.0,WNW,11.5,-,N/A,,Overcast,300,2014-01-12 19:15:00
2:35 PM,41.0,26.1,55,29.58,10.0,WNW,11.5,17.3,N/A,,Overcast,290,2014-01-12 19:35:00
2:55 PM,41.0,26.2,56,29.60,10.0,West,10.4,17.3,N/A,,Overcast,280,2014-01-12 19:55:00
3:15 PM,40.5,26.6,58,29.62,10.0,WNW,6.9,-,N/A,,Overcast,300,2014-01-12 20:15:00
3:35 PM,40.5,26.6,58,29.63,10.0,WNW,4.6,-,N/A,,Overcast,290,2014-01-12 20:35:00
3:55 PM,40.3,27.3,60,29.66,10.0,West,17.3,26.5,N/A,,Overcast,260,2014-01-12 20:55:00
4:15 PM,39.6,27.5,62,29.67,10.0,WNW,8.1,16.1,N/A,,Overcast,290,2014-01-12 21:15:00
4:35 PM,39.4,26.6,60,29.69,10.0,WNW,8.1,-,N/A,,Overcast,290,2014-01-12 21:35:00
4:55 PM,38.8,26.8,62,29.70,10.0,West,8.1,17.3,N/A,,Overcast,280,2014-01-12 21:55:00
5:15 PM,38.8,26.2,61,29.71,10.0,West,9.2,-,N/A,,Overcast,280,2014-01-12 22:15:00
5:35 PM,38.7,26.4,61,29.74,10.0,West,9.2,17.3,N/A,,Overcast,280,2014-01-12 22:35:00
5:55 PM,38.7,25.7,60,29.75,10.0,West,12.7,18.4,N/A,,Overcast,270,2014-01-12 22:55:00
6:15 PM,38.5,25.5,60,29.76,10.0,West,9.2,-,N/A,,Overcast,280,2014-01-12 23:15:00
6:35 PM,38.7,24.3,56,29.77,10.0,WNW,11.5,19.6,N/A,,Overcast,290,2014-01-12 23:35:00
6:55 PM,38.3,23.7,56,29.77,10.0,WNW,9.2,17.3,N/A,,Overcast,300,2014-01-12 23:55:00
7:15 PM,38.3,23.4,55,29.78,10.0,WNW,9.2,-,N/A,,Overcast,290,2014-01-13 00:15:00
7:35 PM,37.9,23.7,57,29.80,10.0,WNW,8.1,-,N/A,,Overcast,290,2014-01-13 00:35:00
7:55 PM,37.8,24.4,59,29.81,10.0,WNW,8.1,-,N/A,,Overcast,300,2014-01-13 00:55:00
8:15 PM,37.8,24.1,58,29.82,10.0,WNW,10.4,24.2,N/A,,Overcast,300,2014-01-13 01:15:00
8:35 PM,37.4,24.3,59,29.83,10.0,WNW,9.2,21.9,N/A,,Overcast,300,2014-01-13 01:35:00
8:55 PM,37.4,24.1,59,29.84,10.0,NW,8.1,-,N/A,,Overcast,320,2014-01-13 01:55:00
9:15 PM,37.4,24.1,59,29.84,10.0,NW,10.4,-,N/A,,Overcast,310,2014-01-13 02:15:00
9:35 PM,37.2,24.4,60,29.85,10.0,NW,10.4,17.3,N/A,,Overcast,310,2014-01-13 02:35:00
9:55 PM,37.2,24.8,61,29.86,10.0,WNW,8.1,-,N/A,,Overcast,290,2014-01-13 02:55:00
10:15 PM,36.7,25.2,63,29.86,10.0,WNW,9.2,16.1,N/A,,Overcast,290,2014-01-13 03:15:00
10:35 PM,36.9,25.0,62,29.87,10.0,West,8.1,-,N/A,,Overcast,280,2014-01-13 03:35:00
10:55 PM,36.9,25.2,63,29.88,10.0,WNW,3.5,-,N/A,,Overcast,290,2014-01-13 03:55:00
11:15 PM,36.9,24.6,61,29.88,10.0,West,9.2,-,N/A,,Overcast,270,2014-01-13 04:15:00
11:35 PM,36.5,24.8,63,29.88,10.0,WNW,8.1,-,N/A,,Overcast,290,2014-01-13 04:35:00
11:55 PM,36.1,24.3,62,29.88,10.0,West,11.5,-,N/A,,Mostly Cloudy,270,2014-01-13 04:55:00